Regional Weather Roundup
Issued by NWS Wakefield, VA

Home | Current Version | Previous Version | Graphics & Text | Print | Product List | Glossary On
Versions: 1 2 3 4 5 6 7 8 9 10 11 12 13 14 15 16 17 18 19 20 21 22 23 24 25 26 27 28 29 30 31 32 33 34 35 36 37 38 39 40 41 42 43 44 45 46 47 48 49 50
000
ASUS41 KAKQ 271610
RWRAKQ

REGIONAL WEATHER ROUNDUP
NATIONAL WEATHER SERVICE WAKEFIELD VA
1100 AM EST FRI FEB 27 2015

Note: "fair" indicates few or no clouds below 12,000 feet with no
significant weather and/or obstructions to visibility. * = Denotes
station may not report precipitation (e.g., rain,snow,etc.),
thunder or fog.

VAZ042-051-052>054-056-271700-
NORTHERN VIRGINIA

CITY           SKY/WX    TMP DP  RH WIND       PRES   REMARKS
WASH NATIONAL  PTSUNNY   34  12  40 NW10      30.43S
DULLES         MOSUNNY   26   8  46 N10       30.43R WCI  16
FORT BELVOIR   CLOUDY    30  10  42 NW15      30.44R WCI  19
QUANTICO       PTSUNNY   31  11  43 N17G24    30.45R WCI  19
FREDERICKSBRG* CLOUDY    32  16  52 N8        30.42R
STAFFORD*      CLOUDY    30  12  46 N12       30.46S WCI  21
WARRENTON      PTSUNNY   31  18  58 N14       30.42R WCI  21
CULPEPER*      SUNNY     30  14  51 N12       30.42R WCI  21
MANASSAS*      MOSUNNY   30  16  55 N10G22    30.43  WCI  21
LEESBURG*      SUNNY     28  14  54 N12G17    30.44R WCI  18
WINCHESTER     SUNNY     28   3  34 NW13      30.42R WCI  18
FRONT ROYAL*   FAIR      27   9  46 N7        30.40R
LURAY*         FAIR      32  18  55 SW5       30.38R
$$

VAZ048-049-060>072-079>083-271700-
CENTRAL AND SOUTH CENTRAL VIRGINIA

CITY           SKY/WX    TMP DP  RH WIND       PRES   REMARKS
RICHMOND       CLOUDY    34  27  75 N10       30.39R
CHESTERFIELD*  CLOUDY    36  21  55 N7        30.39R
PETERSBURG*    SUNNY     39  30  69 N5        30.38R
HANOVER        CLOUDY    33  25  72 VRB5      30.41R
TAPPAHANNOCK*  CLOUDY    32  25  76 N6        30.41R
QUINTON*       CLOUDY    33  28  82 N8        30.39R
CHARLOTTSVILLE PTSUNNY   34  17  50 NE3       30.36R
GORDONSVILLE*  FAIR      30  16  55 NE8       30.38S
ORANGE*        SUNNY     32  18  55 NE8       30.41R
LOUISA*        CLOUDY    32  21  64 N6        30.37R
BUMPASS*       CLOUDY    32  22  67 N7        30.39R
FARMVILLE*     MOSUNNY   43  28  56 N5        30.36S
CREWE*         FAIR      36  26  65 NW9       30.36S
FORT PICKETT*  FAIR      36  25  65 N8        30.36S
CHASE CITY*    FAIR      39  25  56 NW3       30.37S
CLARKSVILLE*   FAIR      36  25  64 NW5       30.37R
SOUTH HILL*    SUNNY     37  22  56 N5        30.42S
LAWRENCEVILLE* FAIR      38  24  56 N9        30.36R
EMPORIA*       SUNNY     36  28  75 NW6       30.39R
$$

VAZ088>098-271700-
SOUTHEAST VIRGINIA

CITY           SKY/WX    TMP DP  RH WIND       PRES   REMARKS
NORFOLK        SUNNY     34  22  61 NE5       30.37R
VIRGINIA BEACH MOSUNNY   38  28  67 NE6       30.37R
NORFOLK NAVAL  MOSUNNY   37  26  64 N7        30.39R
WEST POINT*    CLOUDY    36  25  64 N7        30.42R
SALUDA*        CLOUDY    31  23  73 N8        30.39R
NEWPORT NEWS   LGT RAIN  39  26  59 E3        30.38R
LANGLEY AFB    CLOUDY    33  25  72 E5        30.38R
FORT EUSTIS    CLOUDY    34  26  73 NW2       30.36R
WILLIAMSBURG*  SUNNY     39  30  70 CALM      30.39R
HR EXEC AP*    FAIR      37  28  70 S3        30.40R
FRANKLIN*      MOSUNNY   37  28  70 CALM      30.38S
WAKEFIELD      PTSUNNY   42  29  59 CALM      30.37S
$$

VAZ020-022-025-037-045-271700-
WEST CENTRAL AND SOUTHWEST VIRGINIA

CITY           SKY/WX    TMP DP  RH WIND       PRES   REMARKS
STAUNTON*      MOSUNNY   29  15  56 NE6       30.37R
WAYNESBORO*    FAIR      29  13  50 SW5       30.32S
HOT SPRINGS VA SUNNY     19   9  63 W12       30.17R WCI   7
LYNCHBURG      SUNNY     33  14  45 W7        30.38R
DANVILLE       SUNNY     37  20  50 N8        30.39R
SOUTH BOSTON*  FAIR      37  20  50 NW5       30.38S
MARTINSVILLE   MOSUNNY   38  19  46 N7        30.40R
ROANOKE        PTSUNNY   30  12  47 NW14G23   30.39R WCI  19
BLACKSBURG     MOSUNNY   25  13  60 NW10G17   30.35S WCI  15
DUBLIN*        SUNNY     29  15  57 W8        30.35R
MARION*        FLURRIES  24  14  64 NW12      30.35R WCI  13
HILLSVILLE*    CLOUDY    25  16  68 NW10      30.29R WCI  15
RICHLANDS*     LGT SNOW  18  10  73 NW6       30.34R
WISE*          LGT SNOW  21  12  68 NW3       30.36R
ABINGDON*      CLOUDY    27  16  62 N5        30.37R
$$

MDZ021>025-VAZ099-100-271700-
SOUTHERN MARYLAND AND THE DELMARVA PENINSULA

CITY           SKY/WX    TMP DP  RH WIND       PRES   REMARKS
PATUXENT RIVER CLOUDY    32  21  64 NW16      30.39R WCI  21
BAY BRIDGE APT LGT SNOW  28  21  74 N9        30.42S
LEONARDTOWN    CLOUDY    32  19  59 NW6       30.41R
DOVER          CLOUDY    28  23  81 N12       30.41R WCI  18
GEORGETOWN     SUNNY     44  18  35 NE9       30.40R
EASTON         NOT AVBL
CAMBRIDGE      NOT AVBL
SALISBURY      CLOUDY    34  21  59 N7        30.39R
OCEAN CITY     SUNNY     31  21  66 NE10      30.39R WCI  22
WALLOPS ISLAND PTSUNNY   32  23  69 NE7       30.39R
ACCOMACK*      CLOUDY    34  21  60 N7        30.38R
$$

NCZ012>017-030>032-271700-
NORTH CENTRAL AND EASTERN NORTH CAROLINA

CITY           SKY/WX    TMP DP  RH WIND       PRES   REMARKS
ROANOKE RAPIDS FAIR      41  30  65 CALM      30.37S
RALEIGH        PTSUNNY   40  25  55 VRB5      30.38R
ELIZABETH CITY SUNNY     38  27  64 N5        30.37S
AHOSKIE*       SUNNY     37  30  75 S3        30.38S
EDENTON*       SUNNY     39  27  63 N6        30.38R
CURRITUCK*     SUNNY     38  26  63 N6        30.38R
KILL DEVIL HLS SUNNY     38  30  72 N9G16     30.35R
MANTEO         SUNNY     39  27  60 N12       30.36R
CAPE HATTERAS  MOSUNNY   39  32  76 N10G16    30.33S
TARBORO*       FAIR      41  32  70 CALM      30.40R
GOLDSBORO      SUNNY     42  41  95 N10       30.35S
WASHINGTON     SUNNY     40  31  70 NW7       30.38R
GREENVILLE     MOSUNNY   41  34  75 N6        30.39R
NEW BERN       MOSUNNY   40  29  64 N8        30.38R
WILMINGTON     MOSUNNY   45  33  63 N8        30.37R
$$

VAZ048-271700-
ELSEWHERE

CITY           SKY/WX    TMP DP  RH WIND       PRES   REMARKS
HARRISBURG PA  MOSUNNY   21   5  50 N10       30.44S WCI  10
BALTIMORE      PTSUNNY   28  16  60 NW9       30.42R
ANNAPOLIS      CLOUDY    28  21  75 N8        30.42R HAZE
ANDREWS AFB    MOSUNNY   31  14  48 NW12      30.40R WCI  22
PHILADELPHIA   CLOUDY    26  12  55 NW8       30.43R
HENDERSON NC   SUNNY     38  21  49 CALM      30.37R
GREENSBORO     PTSUNNY   36  22  56 NE7       30.37R
ROCKY MOUNT    SUNNY     40  30  67 NW6       30.38R
$$

VAZ100-271700-
MARINE

STATION/POSITION TIME  TEMP    WIND        PRES    WAVE   SWELL
                       AIR SEA DIR/SP/G            HT/PER HT/PER
                 (UTC) (F)     (DEG/KT/KT) (MB)    (FT/S) (FT/S)
BRANDYWINE LGT   1600   26 30  360/ 12/ 13 1029.6R
CAPE MAY NJ      1600   27 32  340/ 10/ 12 1028.9R
LEWES DE         1600   26 30   10/  7/  8 1029.5R
15NM E FENWICK I 1600   30 36              1028.4R   5/ 8
OCEAN-CITY-INLET 1600   29 31   20/ 10/ 13 1028.5R
WACHAPREAGUE VA  1600   30 31   30/  6/  8 1028.7R
THOMAS POINT MD  1600   26 31   20/ 15/ 16 1030.9R
COVE POINT MD    1600   29      20/ 14/ 16 1029.1R
SOLOMONS ISLAND  1600      32                N/A
BISHOPS HEAD MD  1600   31 31   20/  5/  7 1028.6R
CAMBRIDGE MD     1600   31 32  310/  7/  9 1029.0S
LEWISETTA VA     1600      31              1029.3R
RAPPAHANNOCK LGT 1600          360/  9/  9 1029.5R
STINGRAY PT      1600   31     360/  8/ 10   N/A
YORK RVR RNG VA  1600   32      70/  4/  4 1028.3R
YORKTOWN VA      1600   32 32  110/  2/  3 1028.6R
DOMINION TERM VA 1600   32     150/  3/  3 1028.7R
KIPTOPEKE VA     1600      36  300/  3/  5   N/A
CHES BAY BRIDGE  1600   31 33   10/  2/  3 1028.3R
CAPE HENRY VA    1600   32     340/  3/  4 1027.2R
CHESAPEAKE LGHT  1500   33      10/  5/  5 1028.7R
WILLOUBY STN VA  1600           70/  4/  4 1029.1R
S CRANEY ISL VA  1600          350/  3/  4 1028.6R
CAPE HENRY BUOY  1500      35                N/A     4/10   2/11
1ST LANDING BUOY 1600   33      20/  4/  4 1028.2R
OFFSHORE WE BUOY 1600      38                N/A     5/10   5/10
64NM E OF VA BCH 1600   42 60  360/ 16/ 19 1026.6R   8/11   7/11
DUCK PIER NC     1600   34 34  350/ 10/ 11 1027.2R
44100 DUCK FRF   1500      36                N/A     7/11   3/11
44056 DUCK FRF   1600      35                N/A     5/12   3/12
OREGON INLET NC  1600   38 36  350/ 11/ 14 1027.5R
HATTERAS NC      1600   36 40   10/ 16/ 18 1027.2F
CAPE LOOKOUT NC  1600   40      10/ 13/ 16 1027.5R
$$


USA.gov is the U.S. government's official web portal to all federal, state and local government web resources and services.